Lexington Weather

Lexington, Massachusetts, USA

42°F
11/27/2020 3:44am 
  • Lexington Conditions: Fog, Overcast
  • Temperature: 42.1°F / 5.6°CWarmer 2.5°F than last hour.
  • Dew Point: 41.4°FIncreased 2.6°Fsince last hour.
  • Relative Humidity: 97
  • Wind: Calm, 10-min avg: Calm, gust: None
  • Barometer: 29.97 in Steady
  • Visibility: ½ mile
  • Rain Today: 0.00 in
  •   
Southeast Middlesex County - Special Weather Statement - Special Weather Statement
 - SEE ALL NEARBY ALERTS -

Regional Weather Roundup
for Boston / Norton, MA

        
000
ASUS41 KBOX 270004
RWRBOX

REGIONAL WEATHER ROUNDUP
NATIONAL WEATHER SERVICE BOSTON/NORTON MA
700 PM EST THU NOV 26 2020

NOTE:  "FAIR" INDICATES FEW OR NO CLOUDS BELOW 12,000 FEET WITH NO 
SIGNIFICANT WEATHER AND/OR OBSTRUCTIONS TO VISIBILITY.

MAZALL-270100-
EASTERN MASSACHUSETTS
  
CITY           SKY/WX    TMP DP  RH WIND       PRES   REMARKS
BOSTON         CLOUDY    55  53  93 W5        29.96R                  
6HR MIN TEMP:  55; 6HR MAX TEMP:  59; 6HR PCP:  0.05;                

BEVERLY        FOG       48  47  96 NW7       29.96R VSB 1/2          
LAWRENCE       FOG       44  44 100 NW8       30.00R VSB 1/2          
BEDFORD        FOG       44  43  96 NW7       29.97R VSB 1/2          
BLUE HILL        N/A     56  55  97 SW10      29.95R                  
NORWOOD        CLEAR     59  55  87 SW3       29.96R                  
MARSHFIELD     CLOUDY    61  61 100 SW9       29.96R                  
PLYMOUTH       CLOUDY    58  56  93 SW10      29.96S                  
TAUNTON        CLOUDY    59  57  93 SW6       29.97R                  
NEW BEDFORD    CLOUDY    59  57  93 SW6       29.96R                  
$$

MAZALL-270100-
CAPE COD AND THE ISLANDS
  
CITY           SKY/WX    TMP DP  RH WIND       PRES   REMARKS
FALMOUTH       NOT AVBL                                               
HYANNIS        CLOUDY    58  58 100 SW13      29.96F FOG              
CHATHAM        FOG       55  53  93 VRB5      29.98F VSB 1            
NANTUCKET      CLOUDY    57  56  96 SW14      29.99F FOG              
MARTHAS VNYRD  CLOUDY    58  58 100 SW13G18   29.98S FOG              
$$
 
MAZALL-270100-
CENTRAL AND WESTERN MASSACHUSETTS
  
CITY           SKY/WX    TMP DP  RH WIND       PRES   REMARKS
WORCESTER      PTCLDY    54  51  90 W9        29.96S                  
6HR MIN TEMP:  54; 6HR MAX TEMP:  57; 6HR PCP:  0.06;                

FITCHBURG      MOCLDY    44  43  96 CALM      29.98S FOG              
ORANGE         CLOUDY    49  49 100 CALM      29.98R FOG              
SPRINGFIELD    FOG       45  45 100 CALM      29.97R VSB 5/8          
WESTFIELD      FOG       43  43 100 CALM      29.98R VSB 1/4          
NORTH ADAMS    FOG       50  48  93 CALM      29.97R VSB 1/2          
PITTSFIELD     CLOUDY    49  48  97 CALM      29.96R FOG              
$$
 
RIZALL-270100-
RHODE ISLAND
  
CITY           SKY/WX    TMP DP  RH WIND       PRES   REMARKS
PROVIDENCE     PTCLDY    57  55  93 SW9       29.97S                  
6HR MIN TEMP:  56; 6HR MAX TEMP:  60; 6HR PCP:  0.04;                

NEWPORT        MOCLDY    56  56 100 VRB3      29.98R FOG              
BLOCK ISLAND   LGT RAIN  54  54 100 SW10      30.00R VSB 1/2          
SMITHFIELD     PTCLDY    55  55 100 W5        29.97R                  
WESTERLY       FOG       55  54  96 SW3       29.99R VSB 1/4          
$$
 
CTZALL-270100-
CONNECTICUT
  
CITY           SKY/WX    TMP DP  RH WIND       PRES   REMARKS
BRADLEY INTL   PTCLDY    49  47  93 CALM      29.97R FOG              
6HR MIN TEMP:  49; 6HR MAX TEMP:  61; 6HR PCP:  0.02;                

HARTFORD       CLEAR     54  52  93 S3        29.98R                  
BRIDGEPORT     CLEAR     52  49  89 CALM      30.00R                  
DANBURY        CLOUDY    50  49  96 N3        30.01R                  
GROTON         FOG       56  55  97 SW3       29.98R VSB 3/4          
NEW HAVEN      CLEAR     53  49  86 CALM      30.00R                  
CHESTER          N/A     55  55 100 W5        29.99S                  
MERIDEN        FOG       50  48  93 CALM      29.99R VSB 1/4          
WILLIMANTIC    FOG       51  51 100 CALM      29.98R VSB 3/4          
OXFORD         PTCLDY    54  51  90 SW3       30.00R                  
$$

MEZ002-015-021-024-NHZ003-005-008-011-012-014-VTZ005-008-270100-
NORTHERN NEW ENGLAND
  
CITY           SKY/WX    TMP DP  RH WIND       PRES   REMARKS
PORTLAND ME    LGT RAIN  37  37 100 N7        29.99R FOG     WCI  32  
6HR MIN TEMP:  37; 6HR MAX TEMP:  38; 6HR PCP:  0.13;                

BANGOR ME      DRIZZLE   37  36  96 NW3       29.98F FOG              
CONCORD NH     CLOUDY    41  39  93 N5        29.98R                  
MANCHESTER NH  CLOUDY    43  40  89 N6        29.97R                  
NASHUA NH      CLOUDY    42  42 100 CALM      29.99R                  
PORTSMOUTH NH  CLOUDY    41  41  99 NW8       29.96S FOG              
JAFFREY NH     MOCLDY    40  37  89 CALM      29.97R FOG              
KEENE NH       CLOUDY    43  43 100 CALM      29.98S FOG              
BURLINGTON VT  CLOUDY    46  43  89 CALM      29.93R                  
MT. WASHINGTON NOT AVBL                                               
$$

NYZ052-076-270100-
EASTERN NEW YORK
  
CITY           SKY/WX    TMP DP  RH WIND       PRES   REMARKS
ALBANY         CLOUDY    48  48 100 CALM      29.98R                  
6HR MIN TEMP:  48; 6HR MAX TEMP:  52;                                

NEW YORK CITY  PTCLDY    63  46  54 W9        30.01R                  
6HR MIN TEMP:  62; 6HR MAX TEMP:  66;                                

$$
 
ANZALL-270100-
MARINE OBSERVATIONS
  
STATION/POSITION TIME  TEMP    WIND        PRES    VSBY  WAVE
                       AIR SEA DIR/SP/G                  HT/PER
                 (UTC) (F)     (DEG/KT/KT) (MB)    (MI)  (FT/S)
BOSTON BUOY      2340   55 50  220/ 10/ 12 1014.5R
BUZZARDS BAY     2300          250/ 16/ 18 1015.7R
NANTUCKET SOUND  2340      51  220/ 12/ 14   N/A
MASS BAY-STELLWA NOT AVBL
ISLE OF SHOALS   2300   42     330/ 10/ 11 1014.3R
S OF BLOCK IS    2326      57                N/A           6/ 7
$$

......................KEY.........................
  SKY/WX - SKY CONDITION/PRESENT WEATHER
  TMP    - TEMPERATURE IN FAHRENHEIT
  DWPT   - DEWPOINT IN FAHRENHEIT
  RH     - RELATIVE HUMIDITY IN PERCENT
  WIND   - DIRECTION AND SPEED IN MPH
  PRES   - MEAN SEA LEVEL PRESSURE IN INCHES OF HG
  WCI    - WIND CHILL INDEX
  VSB    - VISIBILITY IN MILES
  HX     - HEAT INDEX
  TC     - TEMPERATURE IN CELSIUS
  VRB    - VARIABLE WIND DIRECTION
  N/A    - NOT AVAILABLE
  
      

Other recent Regional Weather Roundups

Fri Nov 27, 12:04am

Thu Nov 26, 11:04pm

Thu Nov 26, 10:04pm

Thu Nov 26, 9:04pm

Thu Nov 26, 8:04pm

Thu Nov 26, 6:04pm

Thu Nov 26, 5:04pm

Thu Nov 26, 4:04pm

Thu Nov 26, 2:04pm

Thu Nov 26, 1:04pm

Thu Nov 26, 12:04pm

Thu Nov 26, 11:04am

Thu Nov 26, 10:04am

Thu Nov 26, 9:04am

Thu Nov 26, 8:04am

Thu Nov 26, 7:04am

Thu Nov 26, 6:04am

Thu Nov 26, 5:04am

Thu Nov 26, 4:04am

Thu Nov 26, 3:04am

Thu Nov 26, 2:04am

Thu Nov 26, 1:04am

Thu Nov 26, 12:04am

Wed Nov 25, 11:04pm

Wed Nov 25, 10:04pm

Wed Nov 25, 9:04pm

Wed Nov 25, 8:04pm

Wed Nov 25, 7:04pm

Wed Nov 25, 6:04pm

Wed Nov 25, 5:04pm

Wed Nov 25, 4:04pm

Wed Nov 25, 3:05pm

Wed Nov 25, 2:04pm

Wed Nov 25, 1:04pm

Wed Nov 25, 12:05pm

Wed Nov 25, 11:04am

Wed Nov 25, 10:04am

Wed Nov 25, 9:04am

Wed Nov 25, 8:04am

Wed Nov 25, 7:04am

Wed Nov 25, 6:04am

Wed Nov 25, 5:04am

Wed Nov 25, 4:04am

Wed Nov 25, 3:04am

Wed Nov 25, 2:04am

Wed Nov 25, 1:04am

Wed Nov 25, 12:04am

Tue Nov 24, 11:04pm

Tue Nov 24, 10:04pm

Tue Nov 24, 9:04pm

Tue Nov 24, 8:04pm

Tue Nov 24, 7:04pm

Tue Nov 24, 6:04pm

Tue Nov 24, 5:04pm

Tue Nov 24, 4:05pm

Tue Nov 24, 3:05pm

Tue Nov 24, 2:05pm

Tue Nov 24, 1:05pm

Tue Nov 24, 12:04pm

Tue Nov 24, 11:04am

Tue Nov 24, 10:04am

Tue Nov 24, 9:04am

Tue Nov 24, 8:04am

Tue Nov 24, 7:04am

Tue Nov 24, 6:04am

Tue Nov 24, 5:04am

Tue Nov 24, 4:05am

Tue Nov 24, 3:04am

Tue Nov 24, 2:04am

Tue Nov 24, 1:04am

Tue Nov 24, 12:05am

Mon Nov 23, 11:04pm

Mon Nov 23, 10:04pm

Mon Nov 23, 9:04pm

Mon Nov 23, 8:04pm

Mon Nov 23, 7:04pm

Mon Nov 23, 6:04pm

Mon Nov 23, 5:04pm

Mon Nov 23, 4:04pm

Mon Nov 23, 3:04pm

Mon Nov 23, 2:04pm

Mon Nov 23, 1:04pm

Mon Nov 23, 12:04pm

Mon Nov 23, 11:04am

Mon Nov 23, 10:04am

Mon Nov 23, 9:04am

Mon Nov 23, 8:05am

Mon Nov 23, 7:04am

Mon Nov 23, 6:04am

Mon Nov 23, 5:04am

Mon Nov 23, 4:04am

Mon Nov 23, 3:04am

Mon Nov 23, 2:04am

Mon Nov 23, 1:04am

Mon Nov 23, 12:05am

Sun Nov 22, 11:04pm

Sun Nov 22, 10:04pm

Sun Nov 22, 9:04pm

Sun Nov 22, 8:05pm

Sun Nov 22, 7:04pm

Sun Nov 22, 6:04pm

Sun Nov 22, 5:04pm

Sun Nov 22, 4:04pm

Sun Nov 22, 3:04pm

Sun Nov 22, 2:04pm

Sun Nov 22, 1:05pm

Sun Nov 22, 12:04pm

Sun Nov 22, 11:04am

Sun Nov 22, 10:05am

Sun Nov 22, 9:04am

Sun Nov 22, 8:04am

Sun Nov 22, 7:04am

Sun Nov 22, 6:04am

Sun Nov 22, 5:04am

Sun Nov 22, 4:04am

Sun Nov 22, 3:04am

Sun Nov 22, 2:04am

Sun Nov 22, 1:04am

Sun Nov 22, 12:04am

Sat Nov 21, 11:04pm

Sat Nov 21, 10:04pm

Sat Nov 21, 9:04pm

Sat Nov 21, 8:05pm

Sat Nov 21, 7:04pm

Sat Nov 21, 6:04pm

Sat Nov 21, 5:04pm

Sat Nov 21, 4:05pm

Sat Nov 21, 3:04pm

Sat Nov 21, 2:04pm

Sat Nov 21, 1:05pm

Sat Nov 21, 12:04pm

Sat Nov 21, 11:04am

Sat Nov 21, 10:04am

Sat Nov 21, 9:04am

Sat Nov 21, 8:04am

Sat Nov 21, 7:04am

Sat Nov 21, 6:04am

Sat Nov 21, 5:04am

Sat Nov 21, 4:04am

Sat Nov 21, 3:04am

Sat Nov 21, 2:04am

Sat Nov 21, 1:04am

Sat Nov 21, 12:04am

Fri Nov 20, 11:04pm

Fri Nov 20, 10:04pm

Fri Nov 20, 9:04pm

Fri Nov 20, 8:04pm

Fri Nov 20, 7:04pm

Fri Nov 20, 6:04pm

Fri Nov 20, 5:04pm

Fri Nov 20, 4:05pm

Fri Nov 20, 3:05pm

Fri Nov 20, 2:04pm

Fri Nov 20, 1:04pm

Fri Nov 20, 12:04pm

Fri Nov 20, 11:04am

Fri Nov 20, 10:04am

Fri Nov 20, 9:04am

Fri Nov 20, 8:04am

Fri Nov 20, 7:04am

Fri Nov 20, 6:04am

Fri Nov 20, 5:04am

Fri Nov 20, 4:04am

Meta data:

ID: 3a27fed8-1efa-4695-b8f7-39e886f4d37b
Link: https://api.weather.gov/products/3a27fed8-1efa-4695-b8f7-39e886f4d37b